| time (UTC) | temp F | wind direction | speed MPH | gust MPH | rain 1hr in | rain 24hr in | rain mn in | humidity % | barometer mb |
| 20260904050805 | 68 | 14 | 0.0 | 0.0 | 0.00 | 0.00 | 0.00 | 80 | 1020.0 |
| 20260904042805 | 70 | 312 | 0.0 | 0.0 | 0.00 | 0.00 | 0.00 | 81 | 1020.0 |
| 20260904042306 | 70 | 39 | 0.0 | 0.0 | 0.00 | 0.00 | 0.00 | 81 | 1020.0 |
| 20260904040305 | 70 | 289 | 0.0 | 3.0 | 0.00 | 0.00 | 0.00 | 81 | 1020.0 |
| 20260904035805 | 70 | 357 | 0.0 | 2.0 | 0.00 | 0.00 | 0.00 | 81 | 1020.0 |
| 20260904033805 | 70 | 288 | 0.0 | 1.0 | 0.00 | 0.00 | 0.00 | 81 | 1021.0 |
| 20260904033305 | 70 | 325 | 0.0 | 1.0 | 0.00 | 0.00 | 0.00 | 81 | 1021.0 |
| 20260904032805 | 70 | 355 | 0.0 | 1.0 | 0.00 | 0.00 | 0.00 | 81 | 1021.0 |
| 20260904032306 | 70 | 335 | 1.0 | 3.0 | 0.00 | 0.00 | 0.00 | 81 | 1021.0 |
| 20260904030805 | 70 | 304 | 1.0 | 3.0 | 0.00 | 0.00 | 0.00 | 81 | 1021.0 |
| 20260904023805 | 70 | 332 | 0.0 | 2.0 | 0.00 | 0.00 | 0.00 | 81 | 1021.0 |
| 20260904023305 | 70 | 329 | 0.0 | 1.0 | 0.00 | 0.00 | 0.00 | 81 | 1021.0 |
| 20260904022805 | 70 | 1 | 0.0 | 1.0 | 0.00 | 0.00 | 0.00 | 81 | 1021.0 |
| 20260904020805 | 70 | 355 | 0.0 | 0.0 | 0.00 | 0.00 | 0.00 | 81 | 1022.0 |
| 20260904015306 | 71 | 36 | 0.0 | 2.0 | 0.00 | 0.00 | 0.00 | 81 | 1022.0 |
| 20260904014304 | 71 | 291 | 0.0 | 0.0 | 0.00 | 0.00 | 0.00 | 81 | 1022.0 |
| 20260904013805 | 71 | 313 | 0.0 | 0.0 | 0.00 | 0.00 | 0.00 | 81 | 1022.0 |
| 20260904011804 | 71 | 305 | 0.0 | 1.0 | 0.00 | 0.00 | 0.00 | 81 | 1022.0 |
| 20260904011305 | 71 | 140 | 0.0 | 1.0 | 0.00 | 0.00 | 0.00 | 82 | 1022.0 |
| 20260904004304 | 71 | 77 | 0.0 | 3.0 | 0.00 | 0.00 | 0.00 | 82 | 1022.0 |
| 20260904002805 | 71 | 163 | 0.0 | 1.0 | 0.00 | 0.00 | 0.00 | 82 | 1022.0 |
| 20260904002306 | 71 | 163 | 1.0 | 2.0 | 0.00 | 0.00 | 0.00 | 82 | 1022.0 |
| 20260904001305 | 71 | 122 | 0.0 | 1.0 | 0.00 | 0.00 | 0.00 | 82 | 1022.0 |
| 20260904000804 | 71 | 113 | 0.0 | 1.0 | 0.00 | 0.00 | 0.00 | 82 | 1022.0 |
| 20260903235804 | 71 | 195 | 1.0 | 3.0 | 0.00 | 0.00 | 0.00 | 82 | 1022.0 |
| 20260903235306 | 71 | 220 | 0.0 | 2.0 | 0.00 | 0.00 | 0.00 | 82 | 1022.0 |
| 20260903234805 | 71 | 61 | 0.0 | 0.0 | 0.00 | 0.00 | 0.00 | 82 | 1022.0 |
| 20260903234305 | 71 | 61 | 0.0 | 1.0 | 0.00 | 0.00 | 0.00 | 82 | 1022.0 |
| 20260903233305 | 71 | 82 | 1.0 | 3.0 | 0.00 | 0.00 | 0.00 | 82 | 1022.0 |
| 20260903232805 | 71 | 116 | 1.0 | 5.0 | 0.00 | 0.00 | 0.00 | 82 | 1022.0 |
| 20260903232306 | 71 | 142 | 2.0 | 5.0 | 0.00 | 0.00 | 0.00 | 83 | 1022.0 |
| 20260903231804 | 71 | 185 | 1.0 | 3.0 | 0.00 | 0.00 | 0.00 | 83 | 1022.0 |
| 20260903224805 | 71 | 199 | 0.0 | 1.0 | 0.00 | 0.00 | 0.00 | 83 | 1022.0 |
| 20260903224304 | 71 | 186 | 0.0 | 2.0 | 0.00 | 0.00 | 0.00 | 83 | 1022.0 |
| 20260903223805 | 71 | 186 | 0.0 | 1.0 | 0.00 | 0.00 | 0.00 | 83 | 1022.0 |
| 20260903221804 | 71 | 171 | 0.0 | 3.0 | 0.00 | 0.00 | 0.00 | 83 | 1022.0 |
| 20260903221305 | 71 | 182 | 1.0 | 2.0 | 0.00 | 0.00 | 0.00 | 83 | 1022.0 |
| 20260903220804 | 71 | 162 | 0.0 | 3.0 | 0.00 | 0.00 | 0.00 | 83 | 1022.0 |
| 20260903214304 | 71 | 187 | 1.0 | 3.0 | 0.00 | 0.00 | 0.00 | 83 | 1022.0 |
| 20260903213304 | 71 | 198 | 0.0 | 3.0 | 0.00 | 0.00 | 0.00 | 83 | 1021.0 |
| 20260903212804 | 72 | 186 | 1.0 | 3.0 | 0.00 | 0.00 | 0.00 | 83 | 1021.0 |
| 20260903212306 | 72 | 191 | 2.0 | 3.0 | 0.00 | 0.00 | 0.00 | 83 | 1021.0 |
| 20260903211805 | 72 | 198 | 2.0 | 3.0 | 0.00 | 0.00 | 0.00 | 83 | 1021.0 |
| 20260903210304 | 72 | 150 | 3.0 | 3.0 | 0.00 | 0.00 | 0.00 | 82 | 1021.0 |
| 20260903201804 | 72 | 137 | 2.0 | 5.0 | 0.00 | 0.00 | 0.00 | 82 | 1021.0 |
| 20260903201305 | 72 | 134 | 3.0 | 6.0 | 0.00 | 0.00 | 0.00 | 82 | 1021.0 |
| 20260903200804 | 72 | 139 | 3.0 | 7.0 | 0.00 | 0.00 | 0.00 | 82 | 1020.0 |
| 20260903200305 | 72 | 124 | 4.0 | 6.0 | 0.00 | 0.00 | 0.00 | 82 | 1020.0 |
| 20260903195306 | 72 | 156 | 3.0 | 6.0 | 0.00 | 0.00 | 0.00 | 82 | 1020.0 |
| 20260903194805 | 72 | 138 | 4.0 | 6.0 | 0.00 | 0.00 | 0.00 | 82 | 1020.0 |
| 20260903193804 | 72 | 112 | 4.0 | 9.0 | 0.00 | 0.00 | 0.00 | 82 | 1020.0 |
| 20260903193305 | 72 | 126 | 5.0 | 9.0 | 0.00 | 0.00 | 0.00 | 81 | 1020.0 |
| 20260903191805 | 72 | 96 | 6.0 | 9.0 | 0.00 | 0.00 | 0.00 | 81 | 1020.0 |
| 20260903191304 | 72 | 114 | 5.0 | 10.0 | 0.00 | 0.00 | 0.00 | 81 | 1020.0 |
| 20260903190805 | 72 | 87 | 4.0 | 12.0 | 0.00 | 0.00 | 0.00 | 80 | 1020.0 |
| 20260903182306 | 74 | 136 | 7.0 | 14.0 | 0.00 | 0.00 | 0.00 | 75 | 1020.0 |
| 20260903181805 | 74 | 126 | 8.0 | 14.0 | 0.00 | 0.00 | 0.00 | 74 | 1020.0 |
| 20260903173304 | 77 | 121 | 8.0 | 14.0 | 0.00 | 0.00 | 0.00 | 68 | 1020.0 |
| 20260903172805 | 78 | 139 | 9.0 | 15.0 | 0.00 | 0.00 | 0.00 | 67 | 1020.0 |
| 20260903172306 | 78 | 137 | 9.0 | 14.0 | 0.00 | 0.00 | 0.00 | 63 | 1020.0 |
| 20260903171804 | 79 | 100 | 9.0 | 14.0 | 0.00 | 0.00 | 0.00 | 61 | 1020.0 |
| 20260903171305 | 79 | 108 | 9.0 | 16.0 | 0.00 | 0.00 | 0.00 | 61 | 1020.0 |
| 20260903170804 | 79 | 117 | 6.0 | 12.0 | 0.00 | 0.00 | 0.00 | 59 | 1020.0 |
| 20260903170304 | 80 | 134 | 7.0 | 13.0 | 0.00 | 0.00 | 0.00 | 60 | 1020.0 |
| 20260903165804 | 80 | 121 | 8.0 | 17.0 | 0.00 | 0.00 | 0.00 | 59 | 1020.0 |
| 20260903165306 | 80 | 131 | 8.0 | 14.0 | 0.00 | 0.00 | 0.00 | 58 | 1020.0 |
| 20260903164304 | 80 | 141 | 8.0 | 14.0 | 0.00 | 0.00 | 0.00 | 59 | 1020.0 |
| 20260903162804 | 81 | 131 | 10.0 | 14.0 | 0.00 | 0.00 | 0.00 | 58 | 1020.0 |
| 20260903155805 | 82 | 154 | 7.0 | 12.0 | 0.00 | 0.00 | 0.00 | 57 | 1020.0 |
| 20260903155306 | 82 | 135 | 4.0 | 10.0 | 0.00 | 0.00 | 0.00 | 57 | 1020.0 |
| 20260903154304 | 82 | 154 | 5.0 | 10.0 | 0.00 | 0.00 | 0.00 | 57 | 1020.0 |
| 20260903153805 | 83 | 132 | 5.0 | 8.0 | 0.00 | 0.00 | 0.00 | 56 | 1020.0 |
| 20260903153304 | 84 | 145 | 6.0 | 10.0 | 0.00 | 0.00 | 0.00 | 56 | 1020.0 |
| 20260903152804 | 83 | 129 | 5.0 | 12.0 | 0.00 | 0.00 | 0.00 | 57 | 1020.0 |
| 20260903152306 | 83 | 144 | 4.0 | 7.0 | 0.00 | 0.00 | 0.00 | 56 | 1020.0 |
| 20260903151306 | 82 | 165 | 5.0 | 7.0 | 0.00 | 0.00 | 0.00 | 59 | 1020.0 |
| 20260903150806 | 82 | 200 | 3.0 | 9.0 | 0.00 | 0.00 | 0.00 | 58 | 1020.0 |
| 20260903145306 | 86 | 267 | 1.0 | 5.0 | 0.00 | 0.00 | 0.00 | 56 | 1020.0 |
| 20260903134806 | 83 | 300 | 1.0 | 3.0 | 0.00 | 0.00 | 0.00 | 57 | 1020.0 |
| 20260903134305 | 82 | 297 | 2.0 | 5.0 | 0.00 | 0.00 | 0.00 | 57 | 1020.0 |
| 20260903133806 | 83 | 294 | 1.0 | 7.0 | 0.00 | 0.00 | 0.00 | 58 | 1020.0 |
| 20260903132805 | 82 | 299 | 2.0 | 10.0 | 0.00 | 0.00 | 0.00 | 58 | 1020.0 |
| 20260903132306 | 82 | 290 | 2.0 | 10.0 | 0.00 | 0.00 | 0.00 | 58 | 1020.0 |
| 20260903123305 | 80 | 300 | 2.0 | 9.0 | 0.00 | 0.00 | 0.00 | 63 | 1021.0 |
| 20260903122806 | 81 | 317 | 2.0 | 5.0 | 0.00 | 0.00 | 0.00 | 62 | 1021.0 |
| 20260903121305 | 81 | 314 | 2.0 | 3.0 | 0.00 | 0.00 | 0.00 | 63 | 1021.0 |
| 20260903120806 | 80 | 308 | 2.0 | 3.0 | 0.00 | 0.00 | 0.00 | 63 | 1021.0 |
| 20260903120306 | 80 | 312 | 2.0 | 6.0 | 0.00 | 0.00 | 0.00 | 65 | 1021.0 |
| 20260903115805 | 79 | 291 | 2.0 | 9.0 | 0.00 | 0.00 | 0.00 | 66 | 1021.0 |
| 20260903115306 | 80 | 296 | 2.0 | 3.0 | 0.00 | 0.00 | 0.00 | 66 | 1021.0 |
| 20260903114806 | 79 | 280 | 2.0 | 7.0 | 0.00 | 0.00 | 0.00 | 69 | 1021.0 |
| 20260903114305 | 79 | 275 | 5.0 | 12.0 | 0.00 | 0.00 | 0.00 | 66 | 1021.0 |
| 20260903112805 | 78 | 305 | 3.0 | 10.0 | 0.00 | 0.00 | 0.00 | 68 | 1021.0 |
| 20260903112306 | 79 | 301 | 1.0 | 3.0 | 0.00 | 0.00 | 0.00 | 68 | 1021.0 |
| 20260903111805 | 78 | 292 | 1.0 | 3.0 | 0.00 | 0.00 | 0.00 | 70 | 1021.0 |
| 20260903104806 | 77 | 286 | 3.0 | 7.0 | 0.00 | 0.00 | 0.00 | 70 | 1021.0 |
| 20260903100306 | 73 | 310 | 0.0 | 1.0 | 0.00 | 0.00 | 0.00 | 81 | 1021.0 |
| 20260903095806 | 73 | 276 | 0.0 | 3.0 | 0.00 | 0.00 | 0.00 | 82 | 1021.0 |
| 20260903095306 | 73 | 300 | 0.0 | 2.0 | 0.00 | 0.00 | 0.00 | 82 | 1021.0 |
| 20260903094806 | 73 | 271 | 0.0 | 2.0 | 0.00 | 0.00 | 0.00 | 84 | 1021.0 |
| 20260903094306 | 72 | 286 | 0.0 | 3.0 | 0.00 | 0.00 | 0.00 | 85 | 1021.0 |
| 20260903092805 | 72 | 279 | 1.0 | 5.0 | 0.00 | 0.00 | 0.00 | 85 | 1021.0 |
| 20260903091805 | 71 | 266 | 0.0 | 3.0 | 0.00 | 0.00 | 0.00 | 86 | 1021.0 |
| 20260903091305 | 71 | 330 | 1.0 | 3.0 | 0.00 | 0.00 | 0.00 | 86 | 1021.0 |
| 20260903090805 | 71 | 289 | 0.0 | 7.0 | 0.00 | 0.00 | 0.00 | 86 | 1021.0 |
| 20260903085306 | 71 | 0 | 1.0 | 3.0 | 0.00 | 0.00 | 0.00 | 87 | 1021.0 |
| 20260903084805 | 71 | 287 | 1.0 | 7.0 | 0.00 | 0.00 | 0.00 | 87 | 1021.0 |
| 20260903083805 | 71 | 254 | 1.0 | 3.0 | 0.00 | 0.00 | 0.00 | 88 | 1021.0 |
| 20260903083305 | 71 | 258 | 0.0 | 3.0 | 0.00 | 0.00 | 0.00 | 88 | 1021.0 |
| 20260903082806 | 71 | 248 | 0.0 | 3.0 | 0.00 | 0.00 | 0.00 | 88 | 1021.0 |
| 20260903081305 | 70 | 245 | 0.0 | 2.0 | 0.00 | 0.00 | 0.00 | 88 | 1021.0 |
| 20260903080305 | 70 | 245 | 1.0 | 3.0 | 0.00 | 0.00 | 0.00 | 88 | 1021.0 |
| 20260903075805 | 70 | 254 | 1.0 | 2.0 | 0.00 | 0.00 | 0.00 | 89 | 1021.0 |
| 20260903073805 | 69 | 128 | 1.0 | 2.0 | 0.00 | 0.00 | 0.00 | 88 | 1020.0 |
| 20260903072805 | 69 | 9 | 0.0 | 1.0 | 0.00 | 0.00 | 0.00 | 89 | 1020.0 |
| 20260903071305 | 69 | 15 | 0.0 | 1.0 | 0.00 | 0.00 | 0.00 | 89 | 1020.0 |
| 20260903070804 | 69 | 15 | 0.0 | 1.0 | 0.00 | 0.00 | 0.00 | 89 | 1020.0 |
| 20260903070306 | 69 | 15 | 1.0 | 2.0 | 0.00 | 0.00 | 0.00 | 89 | 1020.0 |
| 20260903065805 | 69 | 15 | 1.0 | 2.0 | 0.00 | 0.00 | 0.00 | 89 | 1020.0 |
| 20260903062306 | 68 | 5 | 1.0 | 2.0 | 0.00 | 0.00 | 0.00 | 89 | 1019.0 |
| 20260903061805 | 68 | 338 | 1.0 | 2.0 | 0.00 | 0.00 | 0.00 | 89 | 1019.0 |
| 20260903055805 | 68 | 331 | 0.0 | 3.0 | 0.00 | 0.00 | 0.00 | 89 | 1019.0 |
| 20260903055306 | 68 | 342 | 0.0 | 3.0 | 0.00 | 0.00 | 0.00 | 88 | 1019.0 |
| 20260903054805 | 68 | 342 | 1.0 | 2.0 | 0.00 | 0.00 | 0.00 | 88 | 1019.0 |
| 20260903054306 | 68 | 355 | 1.0 | 3.0 | 0.00 | 0.00 | 0.00 | 88 | 1019.0 |
| 20260903051305 | 68 | 6 | 1.0 | 2.0 | 0.00 | 0.01 | 0.00 | 88 | 1019.0 |